Weather in Ahmetli

Turkey     38°31′02″N   27°56′18″E
temp.,
°C
wind,
m/s
gust,
m/s
humid.,
%
clouds,
%
prec.,
mm/h
press.,
hPa
HPBL,
m
23 october, sat
sat2300:00+14ssw11530 0.0 102111
03:00+13s11560 0.0 102111
06:00+12ssw11660 0.0 102110
09:00+15nne00580 0.0 102299
12:00+19n22440 0.0 1022727
15:00+22nnw32310 0.0 10201189
18:00+19nw22435 0.0 101912
21:00+16ssw22556 0.0 102111
24 october, sun
sun2400:00+15sw11621 0.0 102111
03:00+13sw11690 0.0 102110
06:00+13ssw11740 0.0 102010
09:00+15wnw00621 0.0 1021122
12:00+20nw33470 0.0 1022816
15:00+20nw765078 0.0 1021990
18:00+15wnw45686 0.0 1022457
21:00+11wsw348655 0.0 1024138
25 october, mon
mon2500:00+10sw119019 0.0 102424
03:00+9wsw119174 0.0 1024143
06:00+10ese3485100 0.0 1023197
09:00+11ne266994 0.0 1024456
12:00+17ene894091 0.0 10231253
15:00+20ene782996 0.0 10201613
18:00+17ne2231100 0.0 101921
21:00+13n0139100 0.0 102114
26 october, tue
tue2600:00+11sse114288 0.0 102212
03:00+10ese124487 0.0 102111
06:00+8e1149100 0.0 102110
09:00+10ne1243100 0.0 1021143
12:00+15nne223499 0.0 1020478
15:00+18nnw2130100 0.0 1018614
18:00+16wsw2236100 0.0 101712
21:00+14ssw11415 0.0 101810
27 october, wed
wed2700:00+12wsw11464 0.0 101910
03:00+11wsw11504 0.0 101910
06:00+10sse00535 0.0 101910
09:00+13nne11445 0.0 102091
12:00+18n21325 0.0 1019510
15:00+21nw32295 0.0 10181003
18:00+18wnw22395 0.0 101816
21:00+15sw124849 0.0 102012